[Date Prev][Date Next][Thread Prev][Thread Next] - [Date Index][Thread Index][Author Index]
2 Line ISS Keps 6-24
- Subject: [sarex] 2 Line ISS Keps 6-24
- From: "Dave Larsen PhD" <doc@xxxxxxxxxxx>
- Date: Thu, 23 Jun 2005 18:54:00 -0700
ISS
1 25544U 98067A 05174.97573157 .00006644 00000-0 51951-4 0 7589
2 25544 051.6456 226.1024 0004059 300.1010 129.9485 15.73061714376750
----
Via the sarex mailing list at AMSAT.ORG courtesy of AMSAT-NA.
To unsubscribe, send "unsubscribe sarex" to Majordomo@amsat.org
AMSAT Home